DLH19D EDDF-EHAM

Flight info

Callsign DLH19D
Flight time 0h 57m
Altitude 24000
Route MARUN8M/25C MARUN Y152 ARPEG Z850 ABILU DCT NORKU
Aircraft A320/M-SDE3FGHIRWY/LB1

Departure

Time 2026-05-04 11:28
Airport Frankfurt Main Airport (EDDF)

Arrival

Time 2026-05-04 12:25
Airport Amsterdam Airport Schiphol (EHAM)
Time Latitude Longitude Altitude Speed Heading
2026-05-04 10:58 50.04752 8.56883 364 ft 0 kts 294°
2026-05-04 11:16 50.04750 8.56890 364 ft 4 kts 294°
2026-05-04 11:16 50.04740 8.56929 364 ft 4 kts 295°
2026-05-04 11:16 50.04731 8.56959 362 ft 4 kts 276°
2026-05-04 11:17 50.04737 8.56991 360 ft 4 kts 216°
2026-05-04 11:17 50.04759 8.57010 360 ft 4 kts 204°
2026-05-04 11:19 50.04795 8.57035 363 ft 0 kts 205°
2026-05-04 11:20 50.04791 8.57032 364 ft 4 kts 205°
2026-05-04 11:20 50.04769 8.57016 361 ft 3 kts 205°
2026-05-04 11:20 50.04754 8.57005 365 ft 2 kts 205°
2026-05-04 11:20 50.04730 8.56988 363 ft 6 kts 205°
2026-05-04 11:22 50.04396 8.56842 360 ft 8 kts 187°
2026-05-04 11:22 50.04347 8.56828 360 ft 6 kts 192°
2026-05-04 11:23 50.04290 8.56842 361 ft 11 kts 138°
2026-05-04 11:23 50.04285 8.56943 363 ft 11 kts 71°
2026-05-04 11:24 50.04542 8.58021 364 ft 21 kts 69°
2026-05-04 11:25 50.04596 8.58235 368 ft 21 kts 69°
2026-05-04 11:25 50.04642 8.58434 368 ft 16 kts 70°
2026-05-04 11:25 50.04641 8.58550 372 ft 9 kts 126°
2026-05-04 11:26 50.04527 8.58626 371 ft 8 kts 160°
2026-05-04 11:27 50.03281 8.53547 883 ft 183 kts 249°
2026-05-04 11:28 50.02830 8.51681 1607 ft 185 kts 249°
2026-05-04 11:28 50.02252 8.49820 2038 ft 202 kts 233°
2026-05-04 11:28 50.01145 8.48380 2516 ft 208 kts 201°
2026-05-04 11:28 49.99786 8.47837 3444 ft 204 kts 193°
2026-05-04 11:29 49.98387 8.47430 4173 ft 205 kts 193°
2026-05-04 11:29 49.96980 8.47001 4895 ft 207 kts 195°
2026-05-04 11:29 49.95558 8.46510 5502 ft 216 kts 196°
2026-05-04 11:29 49.94026 8.45922 5857 ft 236 kts 197°
2026-05-04 11:31 49.94941 8.34115 10303 ft 305 kts 335°
2026-05-04 11:33 50.11610 8.31299 13660 ft 386 kts 18°
2026-05-04 11:33 50.14170 8.32647 14254 ft 390 kts 18°
2026-05-04 11:33 50.16762 8.34009 14811 ft 394 kts 18°
2026-05-04 11:34 50.19338 8.35365 15368 ft 398 kts 18°
2026-05-04 11:34 50.21968 8.36753 15925 ft 402 kts 18°
2026-05-04 11:34 50.24633 8.38157 16481 ft 406 kts 17°
2026-05-04 11:34 50.27324 8.39571 17034 ft 410 kts 17°
2026-05-04 11:35 50.30033 8.40992 17582 ft 414 kts 17°
2026-05-04 11:35 50.32778 8.42454 18119 ft 418 kts 18°
2026-05-04 11:35 50.35534 8.43952 18629 ft 421 kts 18°
2026-05-04 11:35 50.38313 8.45482 19119 ft 425 kts 18°
2026-05-04 11:36 50.41107 8.47029 19623 ft 429 kts 18°
2026-05-04 11:36 50.43935 8.48593 20114 ft 432 kts 18°
2026-05-04 11:36 50.46777 8.50160 20581 ft 435 kts 18°
2026-05-04 11:36 50.49620 8.51675 21029 ft 438 kts 16°
2026-05-04 11:37 50.52569 8.53133 21468 ft 441 kts 15°
2026-05-04 11:37 50.55473 8.54497 21903 ft 443 kts 14°
2026-05-04 11:37 50.58452 8.55835 22350 ft 445 kts 11°
2026-05-04 11:37 50.61515 8.56362 22772 ft 442 kts 355°
2026-05-04 11:38 50.64527 8.55607 23176 ft 438 kts 339°
2026-05-04 11:38 50.67311 8.53716 23560 ft 436 kts 330°
2026-05-04 11:38 50.70041 8.51588 23892 ft 439 kts 330°
2026-05-04 11:38 50.72772 8.49440 23979 ft 442 kts 329°
2026-05-04 11:39 50.75555 8.47245 23996 ft 450 kts 329°
2026-05-04 11:39 50.78372 8.45025 24009 ft 453 kts 329°
2026-05-04 11:40 50.95330 8.31764 24002 ft 455 kts 330°
2026-05-04 11:41 50.98166 8.29533 23999 ft 454 kts 330°
2026-05-04 11:41 51.00996 8.27306 23996 ft 454 kts 330°
2026-05-04 11:41 51.03828 8.25074 23993 ft 454 kts 330°
2026-05-04 11:41 51.06618 8.22870 23997 ft 453 kts 329°
2026-05-04 11:42 51.09433 8.20636 23996 ft 453 kts 329°
2026-05-04 11:42 51.12251 8.18396 23995 ft 452 kts 329°
2026-05-04 11:42 51.15070 8.16160 23989 ft 452 kts 329°
2026-05-04 11:42 51.17881 8.13924 23992 ft 452 kts 329°
2026-05-04 11:43 51.20695 8.11675 23988 ft 452 kts 329°
2026-05-04 11:43 51.23508 8.09424 23987 ft 452 kts 329°
2026-05-04 11:43 51.26314 8.07179 23982 ft 452 kts 329°
2026-05-04 11:43 51.29126 8.04932 23975 ft 452 kts 329°
2026-05-04 11:44 51.31898 8.02714 23982 ft 452 kts 329°
2026-05-04 11:44 51.34706 8.00464 23986 ft 452 kts 329°
2026-05-04 11:44 51.37519 7.98208 23984 ft 452 kts 329°
2026-05-04 11:44 51.40310 7.95925 23980 ft 450 kts 326°
2026-05-04 11:45 51.42901 7.93181 23980 ft 445 kts 319°
2026-05-04 11:45 51.45389 7.90215 23979 ft 445 kts 319°
2026-05-04 11:45 51.47878 7.87247 23981 ft 446 kts 319°
2026-05-04 11:45 51.50335 7.84315 23984 ft 446 kts 319°
2026-05-04 11:46 51.52819 7.81348 23986 ft 446 kts 319°
2026-05-04 11:46 51.55307 7.78379 24005 ft 446 kts 318°
2026-05-04 11:46 51.57804 7.75399 24002 ft 446 kts 319°
2026-05-04 11:46 51.60292 7.72425 24007 ft 447 kts 318°
2026-05-04 11:47 51.62784 7.69438 23996 ft 446 kts 318°
2026-05-04 11:47 51.65275 7.66444 23988 ft 446 kts 318°
2026-05-04 11:47 51.67759 7.63457 23983 ft 447 kts 318°
2026-05-04 11:47 51.70249 7.60459 23980 ft 447 kts 318°
2026-05-04 11:48 51.72739 7.57455 23977 ft 447 kts 318°
2026-05-04 11:48 51.75192 7.54486 23976 ft 447 kts 318°
2026-05-04 11:48 51.77676 7.51474 23974 ft 447 kts 318°
2026-05-04 11:48 51.80161 7.48457 23968 ft 447 kts 318°
2026-05-04 11:49 51.82647 7.45434 23980 ft 447 kts 318°
2026-05-04 11:49 51.85131 7.42416 23980 ft 447 kts 318°
2026-05-04 11:49 51.87618 7.39394 23982 ft 446 kts 318°
2026-05-04 11:49 51.90101 7.36373 23978 ft 446 kts 318°
2026-05-04 11:50 51.92580 7.33351 23989 ft 446 kts 317°
2026-05-04 11:50 51.94218 7.31349 23983 ft 446 kts 318°
2026-05-04 11:50 51.97526 7.27294 23980 ft 446 kts 318°
2026-05-04 11:50 51.99969 7.24295 23964 ft 447 kts 318°
2026-05-04 11:51 52.02449 7.21249 23970 ft 447 kts 318°
2026-05-04 11:51 52.04931 7.18200 23973 ft 447 kts 318°
2026-05-04 11:51 52.07414 7.15144 23983 ft 447 kts 318°
2026-05-04 11:51 52.09889 7.12091 23994 ft 447 kts 318°
2026-05-04 11:52 52.11526 7.10068 23987 ft 447 kts 318°
2026-05-04 11:52 52.14000 7.07010 23994 ft 447 kts 318°
2026-05-04 11:52 52.16474 7.03945 23995 ft 446 kts 318°
2026-05-04 11:52 52.18946 7.00882 23995 ft 446 kts 318°
2026-05-04 11:53 52.21336 6.97685 23992 ft 442 kts 311°
2026-05-04 11:53 52.23395 6.94020 24000 ft 437 kts 304°
2026-05-04 11:53 52.25934 6.88912 24002 ft 437 kts 304°
2026-05-04 11:53 52.27848 6.85071 24012 ft 436 kts 304°
2026-05-04 11:55 52.40881 6.58876 21664 ft 419 kts 304°
2026-05-04 11:55 52.42703 6.55186 21277 ft 416 kts 304°
2026-05-04 11:56 52.44489 6.51473 20887 ft 412 kts 301°
2026-05-04 11:56 52.45900 6.47450 20516 ft 404 kts 291°
2026-05-04 11:56 52.46831 6.43135 20138 ft 399 kts 281°
2026-05-04 11:56 52.47275 6.38745 19774 ft 394 kts 272°
2026-05-04 11:57 52.47494 6.34268 19409 ft 393 kts 272°
2026-05-04 11:57 52.47714 6.29807 19048 ft 391 kts 272°
2026-05-04 11:57 52.47933 6.25372 18702 ft 389 kts 272°
2026-05-04 11:57 52.48149 6.20990 18328 ft 382 kts 273°
2026-05-04 11:58 52.48358 6.16686 17898 ft 375 kts 273°
2026-05-04 11:58 52.48563 6.12453 17466 ft 369 kts 273°
2026-05-04 11:58 52.48763 6.08279 17046 ft 364 kts 273°
2026-05-04 11:58 52.48960 6.04170 16631 ft 359 kts 273°
2026-05-04 11:59 52.49149 6.00167 16221 ft 354 kts 273°
2026-05-04 11:59 52.49338 5.96159 15822 ft 350 kts 273°
2026-05-04 11:59 52.49524 5.92210 15418 ft 346 kts 273°
2026-05-04 11:59 52.49708 5.88290 15021 ft 342 kts 273°
2026-05-04 12:00 52.49890 5.84418 14629 ft 338 kts 273°
2026-05-04 12:00 52.50070 5.80612 14240 ft 332 kts 273°
2026-05-04 12:00 52.50243 5.76853 13863 ft 327 kts 273°
2026-05-04 12:00 52.50409 5.73166 13439 ft 322 kts 273°
2026-05-04 12:01 52.50569 5.69580 13023 ft 317 kts 273°
2026-05-04 12:01 52.50689 5.66004 12605 ft 311 kts 266°
2026-05-04 12:02 52.46394 5.48160 11314 ft 256 kts 246°
2026-05-04 12:03 52.45658 5.45444 10885 ft 258 kts 246°
2026-05-04 12:03 52.44939 5.42794 10500 ft 258 kts 246°
2026-05-04 12:03 52.44212 5.40111 10111 ft 258 kts 246°
2026-05-04 12:03 52.43482 5.37419 9710 ft 259 kts 246°
2026-05-04 12:04 52.42749 5.34718 9282 ft 259 kts 246°
2026-05-04 12:04 52.42019 5.32037 8868 ft 258 kts 246°
2026-05-04 12:04 52.41289 5.29357 8446 ft 257 kts 246°
2026-05-04 12:04 52.40564 5.26695 8045 ft 255 kts 246°
2026-05-04 12:05 52.39845 5.24057 7629 ft 253 kts 246°
2026-05-04 12:05 52.39369 5.22316 7369 ft 252 kts 246°
2026-05-04 12:05 52.38653 5.19706 6965 ft 250 kts 246°
2026-05-04 12:05 52.37729 5.16346 6447 ft 240 kts 246°
2026-05-04 12:06 52.37053 5.13887 6028 ft 233 kts 246°
2026-05-04 12:06 52.36395 5.11490 5626 ft 228 kts 246°
2026-05-04 12:06 52.35931 5.09973 5358 ft 224 kts 238°
2026-05-04 12:06 52.34972 5.07994 4952 ft 220 kts 223°
2026-05-04 12:07 52.33804 5.06483 4784 ft 212 kts 217°
2026-05-04 12:07 52.32626 5.05032 4678 ft 212 kts 221°
2026-05-04 12:07 52.31783 5.03117 4574 ft 209 kts 252°
2026-05-04 12:07 52.31859 5.00031 4451 ft 211 kts 294°
2026-05-04 12:08 52.32420 4.98710 4394 ft 212 kts 317°
2026-05-04 12:08 52.33713 4.97599 4317 ft 214 kts 350°
2026-05-04 12:08 52.35179 4.97827 4248 ft 215 kts 24°
2026-05-04 12:08 52.36446 4.99205 4192 ft 229 kts 37°
2026-05-04 12:09 52.37728 5.00798 4087 ft 237 kts 37°
2026-05-04 12:09 52.39046 5.02432 3985 ft 238 kts 37°
2026-05-04 12:09 52.40361 5.04065 3990 ft 238 kts 39°
2026-05-04 12:09 52.41343 5.06194 3941 ft 239 kts 72°
2026-05-04 12:10 52.41404 5.08916 3334 ft 246 kts 111°
2026-05-04 12:10 52.40388 5.11048 3032 ft 235 kts 151°
2026-05-04 12:10 52.38886 5.11711 3016 ft 224 kts 184°
2026-05-04 12:10 52.37427 5.10934 2956 ft 223 kts 217°
2026-05-04 12:11 52.36220 5.09376 2851 ft 225 kts 218°
2026-05-04 12:11 52.34975 5.07826 2721 ft 224 kts 218°
2026-05-04 12:11 52.33753 5.06261 2592 ft 223 kts 226°
2026-05-04 12:11 52.32881 5.04194 2463 ft 223 kts 248°
2026-05-04 12:12 52.32551 5.01735 2338 ft 222 kts 267°
2026-05-04 12:12 52.32476 4.99217 2210 ft 223 kts 269°
2026-05-04 12:12 52.32872 4.96815 2095 ft 222 kts 308°
2026-05-04 12:12 52.34145 4.95530 2270 ft 223 kts 352°
2026-05-04 12:13 52.35646 4.95996 2620 ft 231 kts 32°
2026-05-04 12:14 52.41693 5.10009 3998 ft 235 kts 127°
2026-05-04 12:15 52.40467 5.11698 4002 ft 231 kts 160°
2026-05-04 12:15 52.38904 5.12047 4003 ft 228 kts 192°
2026-05-04 12:15 52.37489 5.11035 4006 ft 227 kts 218°
2026-05-04 12:15 52.36224 5.09473 4004 ft 229 kts 218°
2026-05-04 12:16 52.34956 5.07903 4004 ft 229 kts 218°
2026-05-04 12:16 52.33684 5.06330 4004 ft 230 kts 217°
2026-05-04 12:16 52.32424 5.04727 4002 ft 230 kts 224°
2026-05-04 12:16 52.31588 5.02554 4003 ft 227 kts 255°
2026-05-04 12:17 52.31535 4.99991 4003 ft 229 kts 284°
2026-05-04 12:17 52.32283 4.97709 4006 ft 231 kts 314°
2026-05-04 12:17 52.33643 4.96343 4007 ft 233 kts 345°
2026-05-04 12:17 52.35257 4.96307 4006 ft 235 kts 16°
2026-05-04 12:18 52.36667 4.97553 4011 ft 237 kts 37°
2026-05-04 12:18 52.37988 4.99178 4006 ft 238 kts 37°
2026-05-04 12:18 52.39314 5.00820 4005 ft 238 kts 37°
2026-05-04 12:18 52.40634 5.02455 4002 ft 238 kts 36°
2026-05-04 12:19 52.41907 5.04188 3995 ft 238 kts 51°
2026-05-04 12:19 52.42601 5.06611 4000 ft 237 kts 83°
2026-05-04 12:19 52.42428 5.09250 4001 ft 235 kts 115°
2026-05-04 12:19 52.41460 5.11353 4003 ft 233 kts 145°
2026-05-04 12:20 52.39987 5.12346 4003 ft 230 kts 176°
2026-05-04 12:20 52.38423 5.11996 3953 ft 230 kts 205°
2026-05-04 12:20 52.37097 5.10585 3711 ft 226 kts 218°
2026-05-04 12:20 52.35852 5.09046 3463 ft 223 kts 218°
2026-05-04 12:21 52.34643 5.07544 3217 ft 219 kts 218°
2026-05-04 12:21 52.33443 5.06052 2959 ft 215 kts 219°
2026-05-04 12:21 52.32587 5.04141 2695 ft 209 kts 258°
2026-05-04 12:21 52.32530 5.01816 2554 ft 200 kts 269°
2026-05-04 12:22 52.32488 4.99559 2372 ft 198 kts 267°
2026-05-04 12:22 52.32417 4.97321 2140 ft 197 kts 267°
2026-05-04 12:22 52.32345 4.95124 1898 ft 192 kts 267°
2026-05-04 12:22 52.32275 4.92963 1622 ft 188 kts 266°
2026-05-04 12:23 52.32207 4.90875 1360 ft 177 kts 267°
2026-05-04 12:23 52.32144 4.88966 1128 ft 161 kts 267°
2026-05-04 12:23 52.32087 4.87237 938 ft 148 kts 268°
2026-05-04 12:23 52.32034 4.85609 662 ft 141 kts 268°
2026-05-04 12:24 52.31982 4.84005 553 ft 140 kts 269°
2026-05-04 12:24 52.31937 4.82442 390 ft 139 kts 269°
2026-05-04 12:24 52.31879 4.80849 201 ft 140 kts 268°
2026-05-04 12:24 52.31823 4.79269 19 ft 139 kts 268°
2026-05-04 12:25 52.31776 4.77898 -2 ft 96 kts 266°
2026-05-04 12:25 52.31745 4.77068 -3 ft 56 kts 267°
2026-05-04 12:25 52.31727 4.76512 -2 ft 44 kts 266°
2026-05-04 12:25 52.31679 4.76171 0 ft 23 kts 239°
2026-05-04 12:26 52.31599 4.75966 -1 ft 18 kts 237°
2026-05-04 12:26 52.31529 4.75782 -1 ft 18 kts 250°
2026-05-04 12:26 52.31517 4.75603 -1 ft 14 kts 266°
2026-05-04 12:26 52.31510 4.75497 -1 ft 7 kts 249°
2026-05-04 12:27 52.31498 4.75475 -1 ft 4 kts 219°
2026-05-04 12:27 52.31426 4.75467 -1 ft 11 kts 180°
2026-05-04 12:27 52.31351 4.75477 -1 ft 10 kts 173°
2026-05-04 12:27 52.31287 4.75483 -1 ft 9 kts 177°
2026-05-04 12:28 52.31231 4.75488 -1 ft 7 kts 176°
2026-05-04 12:28 52.31173 4.75494 -1 ft 8 kts 176°
2026-05-04 12:28 52.31119 4.75498 -1 ft 7 kts 179°
2026-05-04 12:28 52.31087 4.75481 -1 ft 4 kts 168°
2026-05-04 12:29 52.31065 4.75499 -1 ft 3 kts 148°
2026-05-04 12:29 52.31054 4.75509 -1 ft 1 kts 148°
2026-05-04 12:29 52.31050 4.75514 -1 ft 0 kts 148°